Date,TemperatureHighF,TemperatureAvgF,TemperatureLowF,DewpointHighF,DewpointAvgF,DewpointLowF,HumidityHigh,HumidityAvg,HumidityLow,PressureMaxIn,PressureMinIn,WindSpeedMaxMPH,WindSpeedAvgMPH,GustSpeedMaxMPH,PrecipitationSumIn
2013-1-1,77,74,72,77,74,72,100,100,100,30.08,29.95,10,5,14,0.00
2013-1-2,74,74,74,74,74,74,100,100,100,29.97,29.96,0,0,0,0.00
2013-1-3,79,76,74,79,76,74,100,100,100,30.04,29.95,5,1,8,0.00
2013-1-4,80,75,73,80,75,73,100,100,100,30.12,30.02,4,1,7,0.03
2013-1-5,79,75,72,79,74,-100,100,99,100,30.13,30.04,8,3,13,0.01
2013-1-6,80,77,75,80,77,75,100,100,100,30.08,29.96,9,5,14,0.00
2013-1-7,80,77,75,80,77,75,100,100,100,30.05,29.97,8,3,11,0.00
2013-1-8,80,78,74,80,78,74,100,100,100,30.09,29.96,9,4,14,0.00
2013-1-9,80,78,77,80,78,77,100,100,100,30.15,30.03,11,8,19,0.00
2013-1-10,79,77,76,79,77,76,100,100,100,30.17,30.05,13,9,20,0.00
2013-1-11,80,77,75,80,77,75,100,100,100,30.13,30.04,11,8,17,0.00
2013-1-12,79,77,75,79,77,75,100,100,100,30.07,29.98,9,6,13,0.00
2013-1-13,78,76,75,78,76,75,100,100,100,30.02,29.95,11,7,17,0.01
2013-1-14,79,76,75,79,76,75,100,100,100,30.06,30.00,10,6,16,0.00
2013-1-15,79,76,75,79,76,75,100,100,100,30.04,29.94,7,6,13,0.00
2013-1-16,80,77,74,80,77,74,100,100,100,30.01,29.92,8,4,11,0.00
2013-1-17,77,73,68,77,73,68,100,100,100,30.03,29.93,15,8,25,0.23
2013-1-18,68,64,60,68,64,60,100,100,100,30.15,30.03,13,6,21,0.00
2013-1-19,73,70,66,73,69,-100,100,99,100,30.12,30.01,7,2,11,0.00
2013-1-20,75,72,69,75,72,69,100,100,100,30.06,29.92,7,2,9,0.01
2013-1-21,78,73,70,78,73,70,100,100,100,30.00,29.92,10,3,13,0.00
2013-1-22,72,70,67,72,69,-100,100,99,100,30.10,29.94,13,8,18,0.00
2013-1-23,73,69,66,73,68,-100,100,99,100,30.18,30.08,11,7,18,0.00
2013-1-24,73,69,65,73,69,65,100,100,100,30.20,30.09,12,6,17,0.00
2013-1-25,75,70,66,75,70,66,100,100,100,30.19,30.08,10,6,16,0.00
2013-1-26,75,70,66,75,70,66,100,100,100,30.14,30.06,11,5,21,0.00
2013-1-27,76,73,71,76,73,71,100,100,100,30.15,30.07,12,6,18,0.00
2013-1-28,77,75,74,77,75,74,100,100,100,30.20,30.11,10,8,14,0.00
2013-1-29,78,76,74,78,76,74,100,100,100,30.13,30.02,12,7,14,0.00
2013-1-30,77,76,74,77,76,74,100,100,100,30.03,29.88,13,8,21,0.00
2013-1-31,77,72,67,77,72,67,100,100,100,30.08,29.88,13,6,18,0.01